Lat: 41.10N, Lon: 88.42W  ICAO: KPNT
Web Search
Dwight Weather Warning NWS WEATHER ALERT FOR THE DWIGHT, IL AREA - Issued: 647 PM CDT Sat Sep 18 2021 Dwight Weather Warning  

Helpful Tip: Type the letters wx in the search engine next time you need to find us.

Feedback

Dwight Hourly Weather

36 Hour Weather Scroll   °F Click to change Dwight hourly weather to Imperial units.Click to change Dwight hourly weather to Metric units. °C
Currently, Clear, temperature is 62°F17°C, dew point 61°F16°C, humidity 98%. Wind direction is N at 0 mph0 km/h with visibility of 10.00 mi16 km. Barometric pressure is 30 in1016 mb.

Sep 19
2:00 AM

Sep 19
3:00 AM

Sep 19
4:00 AM

Sep 19
5:00 AM

Sep 19
6:00 AM

Sep 19
7:00 AM

Sep 19
8:00 AM

Sep 19
9:00 AM

Sep 19
10:00 AM

Sep 19
11:00 AM

Sep 19
NOON

Sep 19
1:00 PM

Sep 19
2:00 PM

Sep 19
3:00 PM

Sep 19
4:00 PM

Sep 19
5:00 PM

Sep 19
6:00 PM

Sep 19
7:00 PM

Sep 19
8:00 PM

Sep 19
9:00 PM

Sep 19
10:00 PM

Sep 19
11:00 PM

Sep 20
MIDNIGHT

Sep 20
1:00 AM

Sep 20
2:00 AM

Sep 20
3:00 AM

Sep 20
4:00 AM

Sep 20
5:00 AM

Sep 20
6:00 AM

Sep 20
7:00 AM

Sep 20
8:00 AM

Sep 20
9:00 AM

Sep 20
10:00 AM

Sep 20
11:00 AM

Sep 20
NOON

Sep 20
1:00 PM
Clear Clear Clear Clear Clear Clear Clear Clear Clear Clear Mostly Clear Mostly Clear Mostly Clear Partly Cloudy Partly Cloudy Partly Cloudy Mostly Clear Mostly Clear Mostly Clear Mostly Cloudy Mostly Cloudy Mostly Cloudy Cloudy Cloudy Cloudy Cloudy Cloudy Cloudy Cloudy Cloudy Cloudy Cloudy Cloudy Cloudy Cloudy Cloudy
Clear Clear Clear Clear Clear Clear Clear Clear Clear Clear Mostly Clear Mostly Clear Mostly Clear Partly Cloudy Partly Cloudy Partly Cloudy Mostly Clear Mostly Clear Mostly Clear Mostly Cloudy Mostly Cloudy Mostly Cloudy Cloudy Cloudy Cloudy Cloudy Cloudy Cloudy Cloudy Cloudy Cloudy Cloudy Cloudy Cloudy Cloudy Cloudy
66°F19°C 65°F18°C 65°F18°C 65°F18°C 66°F19°C 66°F19°C 71°F22°C 75°F24°C 80°F27°C 83°F28°C 86°F30°C 89°F32°C 89°F32°C 90°F32°C 90°F32°C 87°F31°C 84°F29°C 81°F27°C 78°F26°C 76°F24°C 73°F23°C 72°F22°C 72°F22°C 71°F22°C 71°F22°C 70°F21°C 70°F21°C 69°F21°C 69°F21°C 68°F20°C 68°F20°C 69°F21°C 69°F21°C 70°F21°C 72°F22°C 73°F23°C
- - - - - - - - - - - - - - - - - - - - - - - - Rain Rain Rain Rain Rain Rain Rain Rain Rain Rain Rain Rain
0% 0% 0% 0% 0% 0% 1% 1% 1% 1% 1% 1% 0% 0% 0% 0% 0% 0% 10% 10% 10% 10% 10% 10% 50% 50% 50% 50% 50% 50% 42% 42% 42% 42% 42% 42%
62°F17°C 62°F17°C 62°F17°C 63°F17°C 63°F17°C 64°F18°C 65°F18°C 67°F19°C 68°F20°C 67°F19°C 66°F19°C 65°F18°C 65°F18°C 64°F18°C 64°F18°C 65°F18°C 65°F18°C 66°F19°C 66°F19°C 66°F19°C 66°F19°C 66°F19°C 66°F19°C 66°F19°C 66°F19°C 67°F19°C 67°F19°C 67°F19°C 67°F19°C 67°F19°C 68°F20°C 68°F20°C 69°F21°C 70°F21°C 71°F22°C 72°F22°C
87% 90% 90% 93% 90% 93% 81% 76% 67% 59% 51% 45% 45% 42% 42% 48% 53% 60% 67% 71% 79% 81% 81% 84% 84% 90% 90% 93% 93% 97% 100% 97% 100% 100% 97% 97%
E E ESE ESE E E ESE ESE SE SE SSE SSE SSE SSE SSE SSE SSE SSE SSE SE SE SE SSE SSE SE SE SE SE SE SE SE SSE SSE SSE SSE S
4 mph 3 mph 3 mph 3 mph 3 mph 3 mph 3 mph 4 mph 4 mph 4 mph 5 mph 5 mph 5 mph 7 mph 7 mph 7 mph 10 mph 10 mph 10 mph 8 mph 8 mph 8 mph 11 mph 11 mph 11 mph 10 mph 10 mph 10 mph 11 mph 11 mph 11 mph 8 mph 8 mph 8 mph 9 mph 9 mph
10 mi16 km 6 mi10 km 6 mi10 km 6 mi10 km 5 mi8 km 5 mi8 km 6 mi10 km 6 mi10 km 10 mi16 km 10 mi16 km 10 mi16 km 10 mi16 km 10 mi16 km 10 mi16 km 10 mi16 km 10 mi16 km 10 mi16 km 10 mi16 km 10 mi16 km 10 mi16 km 10 mi16 km 10 mi16 km 10 mi16 km 10 mi16 km 6 mi10 km 6 mi10 km 5 mi8 km 3 mi5 km 3 mi5 km .75 mi1 km .75 mi1 km .75 mi1 km .75 mi1 km 3 mi5 km 6 mi10 km 10 mi16 km
Hour (CDT)
Weather
Clouds
Temperature
Precip. Type
POP
Dewpoint
Humidity
Wind Direction
Wind Speed
Visibility
POP = Probability of Precipitation. ** Indicates missing data/values from model statistics.

24 Hour Forecast

Rest of Tonight - Clear. Patchy fog. Lows in the lower 60s. East winds 5 to 10 mph.
Sunday - Sunny in the morning then becoming partly cloudy. Patchy fog in the morning. Highs around 90. Southeast winds 10 to 15 mph.

48 Hour Forecast API Feed


Sun, Sep 19
2:00 am

Sun, Sep 19
3:00 am

Sun, Sep 19
4:00 am

Sun, Sep 19
5:00 am

Sun, Sep 19
6:00 am

Sun, Sep 19
7:00 am

Sun, Sep 19
8:00 am

Sun, Sep 19
9:00 am

Sun, Sep 19
10:00 am

Sun, Sep 19
11:00 am

Sun, Sep 19
Noon

Sun, Sep 19
1:00 pm

Sun, Sep 19
2:00 pm

Sun, Sep 19
3:00 pm

Sun, Sep 19
4:00 pm

Sun, Sep 19
5:00 pm

Sun, Sep 19
6:00 pm

Sun, Sep 19
7:00 pm

Sun, Sep 19
8:00 pm

Sun, Sep 19
9:00 pm

Sun, Sep 19
10:00 pm

Sun, Sep 19
11:00 pm

Mon, Sep 20
Midnight

Mon, Sep 20
1:00 am

Mon, Sep 20
2:00 am

Mon, Sep 20
3:00 am

Mon, Sep 20
4:00 am

Mon, Sep 20
5:00 am

Mon, Sep 20
6:00 am

Mon, Sep 20
7:00 am

Mon, Sep 20
8:00 am

Mon, Sep 20
9:00 am

Mon, Sep 20
10:00 am

Mon, Sep 20
11:00 am

Mon, Sep 20
Noon

Mon, Sep 20
1:00 pm

Mon, Sep 20
2:00 pm

Mon, Sep 20
3:00 pm

Mon, Sep 20
4:00 pm

Mon, Sep 20
5:00 pm

Mon, Sep 20
6:00 pm

Mon, Sep 20
7:00 pm

Mon, Sep 20
8:00 pm

Mon, Sep 20
9:00 pm

Mon, Sep 20
10:00 pm

Mon, Sep 20
11:00 pm

Tue, Sep 21
Midnight

Tue, Sep 21
1:00 am
Partly CloudyPartly CloudyPartly CloudyPartly CloudyPartly CloudyPartly CloudyPartly CloudyPartly CloudyPartly CloudyPartly CloudyPartly CloudyPartly CloudyPartly CloudyPartly CloudyPartly CloudyPartly CloudyPartly CloudyPartly CloudyPartly CloudyPartly CloudyPartly CloudyPartly CloudyPartly CloudyCloudyPatchy Rain PossiblePatchy Rain PossibleLight DrizzleOvercastPatchy Rain PossiblePatchy Rain PossibleLight Rain ShowerPatchy Rain PossibleLight Rain ShowerOvercastPatchy Rain PossibleOvercastOvercastOvercastPatchy Rain PossiblePartly CloudyPartly CloudyOvercastCloudyPartly CloudyPartly CloudyPartly CloudyPartly CloudyOvercast
Partly cloudy Partly cloudy Partly cloudy Partly cloudy Partly cloudy Partly cloudy Partly cloudy Partly cloudy Partly cloudy Partly cloudy Partly cloudy Partly cloudy Partly cloudy Partly cloudy Partly cloudy Partly cloudy Partly cloudy Partly cloudy Partly cloudy Partly cloudy Partly cloudy Partly cloudy Partly cloudy Cloudy Patchy rain possible Patchy rain possible Light drizzle Overcast Patchy rain possible Patchy rain possible Light rain showers Patchy rain possible Light rain showers Overcast Patchy rain possible Overcast Overcast Overcast Patchy rain possible Partly cloudy Partly cloudy Overcast Cloudy Partly cloudy Partly cloudy Partly cloudy Partly cloudy Overcast
65°F
18°C
65°F
18°C
65°F
18°C
65°F
18°C
65°F
18°C
65°F
18°C
69°F
21°C
74°F
24°C
78°F
26°C
87°F
31°C
90°F
32°C
87°F
31°C
88°F
31°C
88°F
31°C
88°F
31°C
86°F
30°C
83°F
28°C
79°F
26°C
75°F
24°C
74°F
24°C
74°F
23°C
74°F
23°C
72°F
22°C
71°F
22°C
69°F
21°C
69°F
21°C
69°F
20°C
69°F
21°C
69°F
20°C
68°F
20°C
68°F
20°C
69°F
20°C
70°F
21°C
71°F
22°C
71°F
22°C
71°F
22°C
72°F
22°C
73°F
23°C
77°F
25°C
76°F
24°C
76°F
24°C
74°F
24°C
76°F
24°C
76°F
24°C
74°F
23°C
73°F
23°C
73°F
23°C
73°F
23°C
60°F
16°C
61°F
16°C
62°F
17°C
62°F
17°C
62°F
17°C
63°F
17°C
64°F
18°C
65°F
18°C
66°F
19°C
71°F
22°C
71°F
21°C
66°F
19°C
64°F
18°C
64°F
18°C
68°F
20°C
67°F
20°C
68°F
20°C
68°F
20°C
65°F
18°C
65°F
18°C
65°F
18°C
64°F
18°C
65°F
18°C
66°F
19°C
66°F
19°C
67°F
19°C
67°F
19°C
67°F
19°C
67°F
19°C
67°F
19°C
67°F
19°C
67°F
20°C
67°F
20°C
68°F
20°C
68°F
20°C
68°F
20°C
68°F
20°C
69°F
20°C
69°F
20°C
69°F
21°C
70°F
21°C
69°F
21°C
68°F
20°C
67°F
20°C
68°F
20°C
69°F
21°C
69°F
20°C
69°F
20°C
30.12 in
1020 mb
30.12 in
1020 mb
30.09 in
1019 mb
30.09 in
1019 mb
30.09 in
1019 mb
30.12 in
1020 mb
30.12 in
1020 mb
30.12 in
1020 mb
30.09 in
1019 mb
30.09 in
1019 mb
30.06 in
1018 mb
30.03 in
1017 mb
30 in
1016 mb
29.97 in
1015 mb
29.97 in
1015 mb
29.97 in
1015 mb
29.97 in
1015 mb
29.97 in
1015 mb
29.97 in
1015 mb
29.97 in
1015 mb
29.97 in
1015 mb
30 in
1016 mb
30 in
1016 mb
30 in
1016 mb
29.97 in
1015 mb
29.97 in
1015 mb
29.94 in
1014 mb
29.94 in
1014 mb
29.94 in
1014 mb
29.94 in
1014 mb
29.94 in
1014 mb
29.94 in
1014 mb
29.94 in
1014 mb
29.94 in
1014 mb
29.91 in
1013 mb
29.91 in
1013 mb
29.88 in
1012 mb
29.88 in
1012 mb
29.85 in
1011 mb
29.85 in
1011 mb
29.88 in
1012 mb
29.88 in
1012 mb
29.88 in
1012 mb
29.88 in
1012 mb
29.85 in
1011 mb
29.85 in
1011 mb
29.88 in
1012 mb
29.88 in
1012 mb
86%89%91%92%93%93%84%73%65%58%53%49%45%45%52%54%60%69%72%73%72%70%78%83%89%93%94%93%94%95%95%95%92%90%90%89%89%87%76%80%81%83%77%76%81%86%87%88%
ESEESEESESESESESESSESSESSESSESSESSESSESSESSESESESESESESSESSSSSESSESSESESESSESSESSESSESSSSSSWSSSSSSSSS
6 mph
10 km/h
6 mph
10 km/h
6 mph
9 km/h
6 mph
10 km/h
5 mph
9 km/h
5 mph
8 km/h
4 mph
7 km/h
5 mph
8 km/h
5 mph
9 km/h
6 mph
10 km/h
7 mph
12 km/h
8 mph
13 km/h
9 mph
15 km/h
12 mph
19 km/h
12 mph
19 km/h
10 mph
16 km/h
8 mph
13 km/h
8 mph
13 km/h
8 mph
13 km/h
8 mph
13 km/h
10 mph
16 km/h
13 mph
21 km/h
13 mph
21 km/h
11 mph
18 km/h
10 mph
16 km/h
9 mph
15 km/h
10 mph
17 km/h
12 mph
19 km/h
12 mph
19 km/h
12 mph
19 km/h
12 mph
19 km/h
12 mph
19 km/h
13 mph
21 km/h
14 mph
23 km/h
13 mph
22 km/h
13 mph
22 km/h
13 mph
21 km/h
13 mph
21 km/h
16 mph
25 km/h
14 mph
22 km/h
13 mph
21 km/h
12 mph
19 km/h
15 mph
23 km/h
15 mph
24 km/h
15 mph
25 km/h
17 mph
28 km/h
18 mph
29 km/h
18 mph
28 km/h
0%0%0%0%0%0%0%0%0%0%0%0%0%0%0%0%0%0%0%0%0%0%0%0%61%73%74%0%86%86%85%70%68%0%72%0%0%0%66%0%0%0%0%0%0%0%0%0%
6 mi
10 km
6 mi
10 km
6 mi
10 km
6 mi
10 km
6 mi
10 km
6 mi
10 km
6 mi
10 km
6 mi
10 km
6 mi
10 km
6 mi
10 km
6 mi
10 km
6 mi
10 km
6 mi
10 km
6 mi
10 km
6 mi
10 km
6 mi
10 km
6 mi
10 km
6 mi
10 km
6 mi
10 km
6 mi
10 km
6 mi
10 km
6 mi
10 km
6 mi
10 km
6 mi
10 km
6 mi
10 km
6 mi
10 km
1 mi
2 km
6 mi
10 km
6 mi
10 km
6 mi
10 km
6 mi
10 km
6 mi
10 km
6 mi
10 km
6 mi
10 km
6 mi
10 km
6 mi
10 km
6 mi
10 km
6 mi
10 km
6 mi
10 km
6 mi
10 km
6 mi
10 km
6 mi
10 km
6 mi
10 km
6 mi
10 km
6 mi
10 km
6 mi
10 km
6 mi
10 km
6 mi
10 km

Day/Time
Weather
Condition
Temperature
Dew Point
Pressure
Humidity
Wind Direction
Wind Speed
Prob Precip %
Visibility
Prob Precip % = Probability of Precipitation.